DECAYED

STARLINK-1957, 47558 (Decayed)

Orbit data source: Space-Track

STARLINK-1957, 47558 was a payload satellite owned by SpaceX/Seattle (US) in LEO that was launched on Thu, 04 Feb 2021 UTC via an FALCON 9 launch vehicle from the Air Force Eastern Test Range (AFETR). Payload-class satellites include a variety of spacecraft equipped with specific instruments for various scientific and technological missions. These include communications satellites like Starlink; space stations such as the ISS; scientific satellites like the Hubble; Earth observation satellites from companies like Planet Labs, Umbra, and HawkEye 360; GPS; miniature CubeSats for education and research; and military/defense satellites.

Not visible in the next 10 days
Identifier
47558, 2021-009L
Orbit
Decayed
Country
Flag of USUS
Related business
Manufacturer
SpaceX/Seattle
Mission
Decayed Commercial Communications
Bus & Motor
STARLINK, Unknown motor
Mass
260 kg wet, ~248 kg dry
Launch date (UTC)
2021-02-04 (5 years ago)
Launch vehicle
FALCON 9
Launch site
Air Force Eastern Test Range (AFETR)
Object type
Payload
Rocket body
Debris
Shape & HBR
Box + 1 Pan, 10.1 m
Radar Cross Section
13.562 m², Large (>1 m²)

Expand to show TLE details & history
Last TLE update: 1 year ago

TLE from 1 year ago
0 STARLINK-1957
1 47558U 21009L   25161.34818896  .10714600  12392-4  62985-3 0  9996
2 47558  53.0308 105.7462 0003661 253.3945 249.1172 16.41714577241165
Epoch: 2025-06-10T08:21Z
TLE epoch observation values (Epoch: 2025-06-10T08:21:23.526Z)
Latitude
29.21626°
Longitude
-123.29012°
Altitude
163.666 km
Speed
7.812 km/s
True Right ascension
17h 24m 01s
True Declination
29° 03' 24"
Sunlit
Object was in full shadow at epoch
Visualization orbit readout
Latitude
Unknown
Longitude
Unknown
Altitude
Unknown
Speed
Unknown
Apparent Right ascension
Unknown
Apparent Declination
Unknown
Sunlit
N/A
Visualization observer readout
Local Sidereal Time
00:49:54
Azimuth
Unknown
Elevation
Unknown
Doppler factor
Unknown
Orbital elements
Apogee altitude
163.93 km
Perigee altitude
159.142 km
Semi-major axis
6,539.673 km
Eccentricity
0.00037
Inclination
53.0308°
RAAN
105.7462°
Arg. of periapsis
253.3945°
True anomaly
249.07801°
Mean anomaly
249.1172°
Eccentric anomaly
249.0976°
Mean motion
4.10402 °/min
Orbital period
87.72 mins
BSTAR
0.00062985
Loading maneuver chart data...
Computing Atmospheric mass density...

Documentation

Showing up to 5 results
|